• In Uzbekistan
  • List of Countries
  • For 7 days
  • Water Temperature
  • Satellite Maps
  • Weather Map
  • Weather Widgets
  • user-avatar
    Login

    Hourly Weather Bafoussam

    Today, 24 January, Wednesday

    Time Temperature Precipitation Wind Pressure Humidity
    00:00 +19°C° 0 mm 1 mps 644 mmHg 50%
    01:00 +18°C° 0 mm 1 mps 644 mmHg 48%
    02:00 +16°C° 0 mm 1 mps 644 mmHg 44%
    03:00 +16°C° 0 mm 1 mps 643 mmHg 40%
    04:00 +16°C° 0 mm 1 mps 643 mmHg 36%
    05:00 +16°C° 0 mm 1 mps 643 mmHg 34%
    06:00 +16°C° 0 mm 1 mps 643 mmHg 31%
    07:00 +16°C° 0 mm 1 mps 643 mmHg 30%
    08:00 +20°C° 0 mm 1 mps 645 mmHg 26%
    09:00 +23°C° 0 mm 1 mps 646 mmHg 22%
    10:00 +27°C° 0 mm 1 mps 647 mmHg 18%
    11:00 +28°C° 0 mm 1 mps 647 mmHg 17%
    12:00 +30°C° 0 mm 2 mps 646 mmHg 16%
    13:00 +31°C° 0 mm 2 mps 646 mmHg 15%
    14:00 +31°C° 0 mm 2 mps 646 mmHg 15%
    15:00 +31°C° 0 mm 2 mps 645 mmHg 16%
    16:00 +30°C° 0 mm 2 mps 644 mmHg 16%
    17:00 +28°C° 0 mm 1 mps 644 mmHg 21%
    18:00 +25°C° 0 mm 1 mps 643 mmHg 26%
    19:00 +21°C° 0 mm 0 mps 643 mmHg 31%
    20:00 +22°C° 0 mm 1 mps 643 mmHg 34%
    21:00 +21°C° 0 mm 1 mps 643 mmHg 38%
    22:00 +20°C° 0 mm 1 mps 644 mmHg 42%
    23:00 +20°C° 0 mm 1 mps 644 mmHg 41%

    Tomorrow, 25 January, Thursday

    Time Temperature Precipitation Wind Pressure Humidity
    00:00 +19°C° 0 mm 1 mps 643 mmHg 41%
    01:00 +19°C° 0 mm 1 mps 643 mmHg 41%
    02:00 +18°C° 0 mm 1 mps 643 mmHg 38%
    03:00 +18°C° 0 mm 1 mps 643 mmHg 35%
    04:00 +16°C° 0 mm 1 mps 642 mmHg 33%
    05:00 +16°C° 0 mm 1 mps 643 mmHg 33%
    06:00 +16°C° 0 mm 1 mps 643 mmHg 33%
    07:00 +16°C° 0 mm 1 mps 643 mmHg 33%
    08:00 +20°C° 0 mm 1 mps 644 mmHg 30%
    09:00 +24°C° 0 mm 1 mps 645 mmHg 26%
    10:00 +27°C° 0 mm 1 mps 647 mmHg 22%
    11:00 +28°C° 0 mm 1 mps 646 mmHg 21%
    12:00 +30°C° 0 mm 2 mps 646 mmHg 19%
    13:00 +31°C° 0 mm 2 mps 646 mmHg 17%
    14:00 +31°C° 0 mm 2 mps 645 mmHg 18%
    15:00 +31°C° 0 mm 2 mps 644 mmHg 18%
    16:00 +31°C° 0 mm 2 mps 644 mmHg 18%
    17:00 +28°C° 0 mm 1 mps 643 mmHg 23%
    18:00 +26°C° 0 mm 1 mps 643 mmHg 28%
    19:00 +23°C° 0 mm 1 mps 643 mmHg 33%
    20:00 +22°C° 0 mm 1 mps 643 mmHg 37%
    21:00 +21°C° 0 mm 1 mps 643 mmHg 41%
    22:00 +21°C° 0 mm 1 mps 644 mmHg 45%
    23:00 +20°C° 0 mm 1 mps 644 mmHg 44%

    Day after tomorrow, 26 January, Friday

    Time Temperature Precipitation Wind Pressure Humidity
    00:00 +20°C° 0 mm 1 mps 643 mmHg 44%
    01:00 +19°C° 0 mm 1 mps 643 mmHg 43%
    02:00 +19°C° 0 mm 1 mps 643 mmHg 41%
    03:00 +18°C° 0 mm 1 mps 642 mmHg 38%
    04:00 +18°C° 0 mm 1 mps 642 mmHg 36%
    05:00 +16°C° 0 mm 1 mps 642 mmHg 38%
    06:00 +16°C° 0 mm 1 mps 643 mmHg 40%
    07:00 +16°C° 0 mm 1 mps 643 mmHg 41%
    08:00 +20°C° 0 mm 1 mps 644 mmHg 35%
    09:00 +24°C° 0 mm 1 mps 646 mmHg 29%
    10:00 +28°C° 0 mm 1 mps 647 mmHg 23%
    11:00 +29°C° 0 mm 1 mps 647 mmHg 21%
    12:00 +30°C° 0 mm 2 mps 646 mmHg 19%
    13:00 +31°C° 0 mm 2 mps 646 mmHg 17%
    14:00 +31°C° 0 mm 2 mps 645 mmHg 18%
    15:00 +31°C° 0 mm 2 mps 644 mmHg 18%
    16:00 +31°C° 0 mm 2 mps 644 mmHg 19%
    17:00 +28°C° 0 mm 2 mps 643 mmHg 24%
    18:00 +26°C° 0 mm 1 mps 643 mmHg 30%
    19:00 +24°C° 0 mm 1 mps 643 mmHg 36%
    20:00 +23°C° 0 mm 1 mps 643 mmHg 41%
    21:00 +22°C° 0 mm 1 mps 644 mmHg 46%
    22:00 +21°C° 0 mm 1 mps 644 mmHg 51%
    23:00 +20°C° 0 mm 1 mps 644 mmHg 50%

    27 January, Saturday

    Time Temperature Precipitation Wind Pressure Humidity
    00:00 +20°C° 0 mm 1 mps 643 mmHg 49%
    01:00 +19°C° 0 mm 1 mps 643 mmHg 48%
    02:00 +19°C° 0 mm 1 mps 643 mmHg 45%
    03:00 +18°C° 0 mm 1 mps 642 mmHg 42%
    04:00 +18°C° 0 mm 1 mps 642 mmHg 39%
    05:00 +18°C° 0 mm 1 mps 642 mmHg 40%
    06:00 +16°C° 0 mm 1 mps 642 mmHg 40%
    07:00 +16°C° 0 mm 1 mps 643 mmHg 41%
    08:00 +21°C° 0 mm 1 mps 644 mmHg 35%
    09:00 +24°C° 0 mm 1 mps 646 mmHg 28%
    10:00 +28°C° 0 mm 1 mps 647 mmHg 22%
    11:00 +29°C° 0 mm 1 mps 647 mmHg 20%
    12:00 +30°C° 0 mm 2 mps 646 mmHg 18%
    13:00 +31°C° 0 mm 2 mps 646 mmHg 16%
    14:00 +31°C° 0 mm 2 mps 645 mmHg 17%
    15:00 +31°C° 0 mm 2 mps 644 mmHg 18%
    16:00 +31°C° 0 mm 2 mps 643 mmHg 19%
    17:00 +29°C° 0 mm 2 mps 643 mmHg 24%
    18:00 +26°C° 0 mm 1 mps 643 mmHg 29%
    19:00 +24°C° 0 mm 1 mps 643 mmHg 35%
    20:00 +23°C° 0 mm 1 mps 643 mmHg 41%
    21:00 +22°C° 0 mm 1 mps 643 mmHg 47%
    22:00 +21°C° 0 mm 1 mps 643 mmHg 54%
    23:00 +20°C° 0 mm 1 mps 643 mmHg 52%

    28 January, Sunday

    Time Temperature Precipitation Wind Pressure Humidity
    00:00 +20°C° 0 mm 1 mps 643 mmHg 50%
    01:00 +19°C° 0 mm 1 mps 642 mmHg 49%
    02:00 +19°C° 0 mm 1 mps 642 mmHg 46%
    03:00 +18°C° 0 mm 1 mps 642 mmHg 43%
    04:00 +18°C° 0 mm 1 mps 642 mmHg 40%
    05:00 +18°C° 0 mm 1 mps 642 mmHg 41%
    06:00 +18°C° 0 mm 1 mps 642 mmHg 42%
    07:00 +16°C° 0 mm 1 mps 643 mmHg 43%
    08:00 +21°C° 0 mm 1 mps 644 mmHg 36%
    09:00 +24°C° 0 mm 1 mps 645 mmHg 30%
    10:00 +28°C° 0 mm 1 mps 647 mmHg 23%
    11:00 +29°C° 0 mm 2 mps 646 mmHg 21%
    12:00 +30°C° 0 mm 2 mps 646 mmHg 20%
    13:00 +31°C° 0 mm 3 mps 645 mmHg 18%
    14:00 +31°C° 0 mm 3 mps 644 mmHg 19%
    15:00 +31°C° 0 mm 3 mps 644 mmHg 19%
    16:00 +31°C° 0 mm 3 mps 643 mmHg 20%
    17:00 +29°C° 0 mm 2 mps 643 mmHg 25%
    18:00 +26°C° 0 mm 1 mps 643 mmHg 30%
    19:00 +24°C° 0 mm 1 mps 642 mmHg 35%
    20:00 +23°C° 0 mm 1 mps 643 mmHg 41%
    21:00 +22°C° 0 mm 1 mps 643 mmHg 46%
    22:00 +21°C° 0 mm 1 mps 643 mmHg 52%
    23:00 +20°C° 0 mm 1 mps 643 mmHg 50%

    29 January, Monday

    Time Temperature Precipitation Wind Pressure Humidity
    00:00 +20°C° 0 mm 1 mps 643 mmHg 49%
    01:00 +20°C° 0 mm 1 mps 643 mmHg 48%
    02:00 +19°C° 0 mm 1 mps 642 mmHg 45%
    03:00 +19°C° 0 mm 1 mps 642 mmHg 42%
    04:00 +19°C° 0 mm 1 mps 642 mmHg 40%
    05:00 +18°C° 0 mm 1 mps 642 mmHg 40%
    06:00 +18°C° 0 mm 1 mps 643 mmHg 40%
    07:00 +18°C° 0 mm 1 mps 643 mmHg 41%
    08:00 +21°C° 0 mm 1 mps 644 mmHg 35%
    09:00 +25°C° 0 mm 1 mps 646 mmHg 29%
    10:00 +28°C° 0 mm 2 mps 647 mmHg 24%
    11:00 +29°C° 0 mm 2 mps 646 mmHg 22%
    12:00 +30°C° 0 mm 2 mps 646 mmHg 20%
    13:00 +31°C° 0 mm 3 mps 645 mmHg 18%
    14:00 +31°C° 0 mm 3 mps 645 mmHg 18%
    15:00 +31°C° 0 mm 2 mps 644 mmHg 18%
    16:00 +31°C° 0 mm 2 mps 644 mmHg 18%
    17:00 +29°C° 0 mm 2 mps 643 mmHg 23%
    18:00 +27°C° 0 mm 1 mps 643 mmHg 28%
    19:00 +24°C° 0 mm 1 mps 643 mmHg 32%
    20:00 +23°C° 0 mm 1 mps 643 mmHg 39%
    21:00 +22°C° 0 mm 1 mps 643 mmHg 45%
    22:00 +21°C° 0 mm 1 mps 644 mmHg 52%
    23:00 +20°C° 0 mm 1 mps 643 mmHg 52%
    Show more